owner,sensor,date,latitude,longitude,vertical_datum,direction_of_sea_water_velocity,sea_water_speed,upward_sea_water_velocity,qcFlag 
TABS,ioos:station:wmo:42051:1,2012-02-01T00:00:00Z,29.6350,-93.6417,2.0,230.5850871,21.5772774,-99999.0,'11111222,11111222,99999999' 
TABS,ioos:station:wmo:42051:1,2012-02-01T00:30:00Z,29.6350,-93.6417,2.0,237.770897,17.94484048,-99999.0,'11111222,11111222,99999999' 
TABS,ioos:station:wmo:42051:1,2012-02-01T01:00:00Z,29.6350,-93.6417,2.0,267.8535043,23.76666994,-99999.0,'11111222,11111222,99999999' 
TABS,ioos:station:wmo:42051:1,2012-02-01T01:30:00Z,29.6350,-93.6417,2.0,268.9912374,21.59334388,-99999.0,'11111222,11111222,99999999' 
TABS,ioos:station:wmo:42051:1,2012-02-01T02:00:00Z,29.6350,-93.6417,2.0,271.7793014,42.20033768,-99999.0,'11111222,11111222,99999999' 
TABS,ioos:station:wmo:42051:1,2012-02-01T02:30:00Z,29.6350,-93.6417,2.0,266.0539328,41.99954881,-99999.0,'11111222,11111222,99999999' 
TABS,ioos:station:wmo:42051:1,2012-02-01T03:00:00Z,29.6350,-93.6417,2.0,263.3287321,36.93002166,-99999.0,'11111222,11111222,99999999' 
TABS,ioos:station:wmo:42051:1,2012-02-01T03:30:00Z,29.6350,-93.6417,2.0,260.230179,40.48712017,-99999.0,'11111222,11111222,99999999' 
TABS,ioos:station:wmo:42051:1,2012-02-01T04:00:00Z,29.6350,-93.6417,2.0,252.4379343,34.23563202,-99999.0,'11111222,11111222,99999999' 
TABS,ioos:station:wmo:42051:1,2012-02-01T04:30:00Z,29.6350,-93.6417,2.0,259.6769504,40.29215805,-99999.0,'11111222,11111222,99999999' 
TABS,ioos:station:wmo:42051:1,2012-02-01T05:00:00Z,29.6350,-93.6417,2.0,272.7845382,50.43953707,-99999.0,'11111222,11111222,99999999' 
TABS,ioos:station:wmo:42051:1,2012-02-01T05:30:00Z,29.6350,-93.6417,2.0,276.8551601,51.27652972,-99999.0,'11111222,11111222,99999999' 
TABS,ioos:station:wmo:42051:1,2012-02-01T06:00:00Z,29.6350,-93.6417,2.0,269.193837,47.64471114,-99999.0,'11111222,11111222,99999999' 
TABS,ioos:station:wmo:42051:1,2012-02-01T06:30:00Z,29.6350,-93.6417,2.0,265.6155871,38.85368065,-99999.0,'11111222,11111222,99999999' 
TABS,ioos:station:wmo:42051:1,2012-02-01T07:00:00Z,29.6350,-93.6417,2.0,260.1504766,35.31041914,-99999.0,'11111222,11111222,99999999' 
TABS,ioos:station:wmo:42051:1,2012-02-01T07:30:00Z,29.6350,-93.6417,2.0,257.1138822,32.73435657,-99999.0,'11111222,11111222,99999999' 
TABS,ioos:station:wmo:42051:1,2012-02-01T08:00:00Z,29.6350,-93.6417,2.0,246.4726901,29.78604035,-99999.0,'11111222,11111222,99999999' 
TABS,ioos:station:wmo:42051:1,2012-02-01T08:30:00Z,29.6350,-93.6417,2.0,256.7336319,27.06214515,-99999.0,'11111222,11111222,99999999' 
TABS,ioos:station:wmo:42051:1,2012-02-01T09:00:00Z,29.6350,-93.6417,2.0,250.0486814,22.83014893,-99999.0,'11111222,11111222,99999999' 
TABS,ioos:station:wmo:42051:1,2012-02-01T09:30:00Z,29.6350,-93.6417,2.0,252.1520266,23.75311559,-99999.0,'11111222,11111222,99999999' 
TABS,ioos:station:wmo:42051:1,2012-02-01T10:00:00Z,29.6350,-93.6417,2.0,262.0315347,22.00242259,-99999.0,'11111222,11111222,99999999' 
TABS,ioos:station:wmo:42051:1,2012-02-01T10:30:00Z,29.6350,-93.6417,2.0,272.3344955,28.97403838,-99999.0,'11111222,11111222,99999999' 
TABS,ioos:station:wmo:42051:1,2012-02-01T11:00:00Z,29.6350,-93.6417,2.0,265.2359485,24.56485294,-99999.0,'11111222,11111222,99999999' 
TABS,ioos:station:wmo:42051:1,2012-02-01T11:30:00Z,29.6350,-93.6417,2.0,263.2231919,22.62807548,-99999.0,'11111222,11111222,99999999' 
TABS,ioos:station:wmo:42051:1,2012-02-01T12:00:00Z,29.6350,-93.6417,2.0,265.4886017,25.0475907,-99999.0,'11111222,11111222,99999999' 
TABS,ioos:station:wmo:42051:1,2012-02-01T12:30:00Z,29.6350,-93.6417,2.0,261.079017,27.47229878,-99999.0,'11111222,11111222,99999999' 
TABS,ioos:station:wmo:42051:1,2012-02-01T13:00:00Z,29.6350,-93.6417,2.0,255.7275669,31.23400231,-99999.0,'11111222,11111222,99999999' 
TABS,ioos:station:wmo:42051:1,2012-02-01T13:30:00Z,29.6350,-93.6417,2.0,258.2694565,29.41428904,-99999.0,'11111222,11111222,99999999' 
TABS,ioos:station:wmo:42051:1,2012-02-01T14:00:00Z,29.6350,-93.6417,2.0,259.2397863,27.37122942,-99999.0,'11111222,11111222,99999999' 
TABS,ioos:station:wmo:42051:1,2012-02-01T14:30:00Z,29.6350,-93.6417,2.0,256.1858287,29.35915871,-99999.0,'11111222,11111222,99999999' 
TABS,ioos:station:wmo:42051:1,2012-02-01T15:00:00Z,29.6350,-93.6417,2.0,267.7761667,30.67309244,-99999.0,'11111222,11111222,99999999' 
TABS,ioos:station:wmo:42051:1,2012-02-01T15:30:00Z,29.6350,-93.6417,2.0,257.6567376,27.74121302,-99999.0,'11111222,11111222,99999999' 
TABS,ioos:station:wmo:42051:1,2012-02-01T16:00:00Z,29.6350,-93.6417,2.0,253.7133337,27.24320282,-99999.0,'11111222,11111222,99999999' 
TABS,ioos:station:wmo:42051:1,2012-02-01T16:30:00Z,29.6350,-93.6417,2.0,251.7458734,24.99792991,-99999.0,'11111222,11111222,99999999' 
TABS,ioos:station:wmo:42051:1,2012-02-01T17:00:00Z,29.6350,-93.6417,2.0,247.9229964,19.71550152,-99999.0,'11111222,11111222,99999999' 
TABS,ioos:station:wmo:42051:1,2012-02-01T17:30:00Z,29.6350,-93.6417,2.0,273.8845431,29.37747777,-99999.0,'11111222,11111222,99999999' 
TABS,ioos:station:wmo:42051:1,2012-02-01T18:00:00Z,29.6350,-93.6417,2.0,272.0094444,38.22349539,-99999.0,'11111222,11111222,99999999' 
TABS,ioos:station:wmo:42051:1,2012-02-01T18:30:00Z,29.6350,-93.6417,2.0,265.2856035,38.32965562,-99999.0,'11111222,11111222,99999999' 
TABS,ioos:station:wmo:42051:1,2012-02-01T19:00:00Z,29.6350,-93.6417,2.0,256.1948719,39.01702449,-99999.0,'11111222,11111222,99999999' 
TABS,ioos:station:wmo:42051:1,2012-02-01T19:30:00Z,29.6350,-93.6417,2.0,257.7374955,36.58463339,-99999.0,'11111222,11111222,99999999' 
TABS,ioos:station:wmo:42051:1,2012-02-01T20:00:00Z,29.6350,-93.6417,2.0,254.6886705,35.106018,-99999.0,'11111222,11111222,99999999' 
TABS,ioos:station:wmo:42051:1,2012-02-01T20:30:00Z,29.6350,-93.6417,2.0,252.800312,34.02136975,-99999.0,'11111222,11111222,99999999' 
TABS,ioos:station:wmo:42051:1,2012-02-01T21:00:00Z,29.6350,-93.6417,2.0,244.479022,34.83925516,-99999.0,'11111222,11111222,99999999' 
TABS,ioos:station:wmo:42051:1,2012-02-01T21:30:00Z,29.6350,-93.6417,2.0,250.0194589,33.30457026,-99999.0,'11111222,11111222,99999999' 
TABS,ioos:station:wmo:42051:1,2012-02-01T22:00:00Z,29.6350,-93.6417,2.0,254.5900891,28.63955656,-99999.0,'11111222,11111222,99999999' 
TABS,ioos:station:wmo:42051:1,2012-02-01T22:30:00Z,29.6350,-93.6417,2.0,252.9229482,27.4815902,-99999.0,'11111222,11111222,99999999' 
TABS,ioos:station:wmo:42051:1,2012-02-01T23:00:00Z,29.6350,-93.6417,2.0,260.8217945,27.14753948,-99999.0,'11111222,11111222,99999999' 
TABS,ioos:station:wmo:42051:1,2012-02-01T23:30:00Z,29.6350,-93.6417,2.0,266.5595721,21.49873717,-99999.0,'11111222,11111222,99999999' 
TABS,ioos:station:wmo:42051:1,2012-02-02T00:00:00Z,29.6350,-93.6417,2.0,268.8726829,21.86422878,-99999.0,'11111222,11111222,99999999' 
TABS,ioos:station:wmo:42051:1,2012-02-02T00:30:00Z,29.6350,-93.6417,2.0,272.7991749,18.43198579,-99999.0,'11111222,11111222,99999999' 
TABS,ioos:station:wmo:42051:1,2012-02-02T01:00:00Z,29.6350,-93.6417,2.0,259.6526453,17.03705374,-99999.0,'11111222,11111222,99999999' 
TABS,ioos:station:wmo:42051:1,2012-02-02T01:30:00Z,29.6350,-93.6417,2.0,251.5822865,20.57377943,-99999.0,'11111222,11111222,99999999' 
TABS,ioos:station:wmo:42051:1,2012-02-02T02:00:00Z,29.6350,-93.6417,2.0,255.2775562,17.62875208,-99999.0,'11111222,11111222,99999999' 
TABS,ioos:station:wmo:42051:1,2012-02-02T02:30:00Z,29.6350,-93.6417,2.0,265.2912783,14.61933309,-99999.0,'11111222,11111222,99999999' 
TABS,ioos:station:wmo:42051:1,2012-02-02T03:00:00Z,29.6350,-93.6417,2.0,258.4715272,17.5132978,-99999.0,'11111222,11111222,99999999' 
TABS,ioos:station:wmo:42051:1,2012-02-02T03:30:00Z,29.6350,-93.6417,2.0,250.8022825,12.83365887,-99999.0,'11111222,11111222,99999999' 
TABS,ioos:station:wmo:42051:1,2012-02-02T04:00:00Z,29.6350,-93.6417,2.0,239.4718159,13.52476987,-99999.0,'11111222,11111222,99999999' 
TABS,ioos:station:wmo:42051:1,2012-02-02T04:30:00Z,29.6350,-93.6417,2.0,237.050441,14.15713248,-99999.0,'11111222,11111222,99999999' 
TABS,ioos:station:wmo:42051:1,2012-02-02T05:00:00Z,29.6350,-93.6417,2.0,236.3182387,18.37444421,-99999.0,'11111222,11111222,99999999' 
TABS,ioos:station:wmo:42051:1,2012-02-02T05:30:00Z,29.6350,-93.6417,2.0,235.3549188,15.81392424,-99999.0,'11111222,11111222,99999999' 
TABS,ioos:station:wmo:42051:1,2012-02-02T06:00:00Z,29.6350,-93.6417,2.0,244.1126134,17.38440968,-99999.0,'11111222,11111222,99999999' 
TABS,ioos:station:wmo:42051:1,2012-02-02T06:30:00Z,29.6350,-93.6417,2.0,256.9391123,16.94842176,-99999.0,'11111222,11111222,99999999' 
TABS,ioos:station:wmo:42051:1,2012-02-02T07:00:00Z,29.6350,-93.6417,2.0,262.5299,19.9997225,-99999.0,'11111222,11111222,99999999' 
TABS,ioos:station:wmo:42051:1,2012-02-02T07:30:00Z,29.6350,-93.6417,2.0,253.0568628,25.01577502,-99999.0,'11111222,11111222,99999999' 
TABS,ioos:station:wmo:42051:1,2012-02-02T08:00:00Z,29.6350,-93.6417,2.0,254.9320286,23.58070822,-99999.0,'11111222,11111222,99999999' 
TABS,ioos:station:wmo:42051:1,2012-02-02T08:30:00Z,29.6350,-93.6417,2.0,238.4858872,23.2254085,-99999.0,'11111222,11111222,99999999' 
TABS,ioos:station:wmo:42051:1,2012-02-02T09:00:00Z,29.6350,-93.6417,2.0,247.1478215,27.55253346,-99999.0,'11111222,11111222,99999999' 
TABS,ioos:station:wmo:42051:1,2012-02-02T09:30:00Z,29.6350,-93.6417,2.0,244.5530938,29.32491091,-99999.0,'11111222,11111222,99999999' 
TABS,ioos:station:wmo:42051:1,2012-02-02T10:00:00Z,29.6350,-93.6417,2.0,246.2100577,23.55106155,-99999.0,'11111222,11111222,99999999' 
TABS,ioos:station:wmo:42051:1,2012-02-02T10:30:00Z,29.6350,-93.6417,2.0,247.3208898,21.708473,-99999.0,'11111222,11111222,99999999' 
TABS,ioos:station:wmo:42051:1,2012-02-02T11:00:00Z,29.6350,-93.6417,2.0,240.5964251,20.59261275,-99999.0,'11111222,11111222,99999999' 
TABS,ioos:station:wmo:42051:1,2012-02-02T11:30:00Z,29.6350,-93.6417,2.0,234.2708005,22.29642124,-99999.0,'11111222,11111222,99999999' 
TABS,ioos:station:wmo:42051:1,2012-02-02T12:00:00Z,29.6350,-93.6417,2.0,262.3140699,20.41337307,-99999.0,'11111222,11111222,99999999' 
TABS,ioos:station:wmo:42051:1,2012-02-02T12:30:00Z,29.6350,-93.6417,2.0,271.621563,22.26891331,-99999.0,'11111222,11111222,99999999' 
TABS,ioos:station:wmo:42051:1,2012-02-02T13:00:00Z,29.6350,-93.6417,2.0,257.9881288,20.18186314,-99999.0,'11111222,11111222,99999999' 
TABS,ioos:station:wmo:42051:1,2012-02-02T13:30:00Z,29.6350,-93.6417,2.0,263.4515,20.69500423,-99999.0,'11111222,11111222,99999999' 
TABS,ioos:station:wmo:42051:1,2012-02-02T14:00:00Z,29.6350,-93.6417,2.0,265.9544997,19.13767488,-99999.0,'11111222,11111222,99999999' 
TABS,ioos:station:wmo:42051:1,2012-02-02T14:30:00Z,29.6350,-93.6417,2.0,254.1511152,17.86926132,-99999.0,'11111222,11111222,99999999' 
TABS,ioos:station:wmo:42051:1,2012-02-02T15:00:00Z,29.6350,-93.6417,2.0,269.5068218,25.58094603,-99999.0,'11111222,11111222,99999999' 
TABS,ioos:station:wmo:42051:1,2012-02-02T15:30:00Z,29.6350,-93.6417,2.0,270.4705494,28.03094362,-99999.0,'11111222,11111222,99999999' 
TABS,ioos:station:wmo:42051:1,2012-02-02T16:00:00Z,29.6350,-93.6417,2.0,265.7446086,33.02101452,-99999.0,'11111222,11111222,99999999' 
TABS,ioos:station:wmo:42051:1,2012-02-02T16:30:00Z,29.6350,-93.6417,2.0,262.5141799,32.93063316,-99999.0,'11111222,11111222,99999999' 
TABS,ioos:station:wmo:42051:1,2012-02-02T17:00:00Z,29.6350,-93.6417,2.0,269.2946347,35.76270683,-99999.0,'11111222,11111222,99999999' 
TABS,ioos:station:wmo:42051:1,2012-02-02T17:30:00Z,29.6350,-93.6417,2.0,271.7908403,34.88703197,-99999.0,'11111222,11111222,99999999' 
TABS,ioos:station:wmo:42051:1,2012-02-02T18:00:00Z,29.6350,-93.6417,2.0,274.2039016,40.51899555,-99999.0,'11111222,11111222,99999999' 
TABS,ioos:station:wmo:42051:1,2012-02-02T18:30:00Z,29.6350,-93.6417,2.0,273.4401985,37.16695979,-99999.0,'11111222,11111222,99999999' 
TABS,ioos:station:wmo:42051:1,2012-02-02T19:00:00Z,29.6350,-93.6417,2.0,270.7091629,34.76265956,-99999.0,'11111222,11111222,99999999' 
TABS,ioos:station:wmo:42051:1,2012-02-02T19:30:00Z,29.6350,-93.6417,2.0,273.8784121,36.96463715,-99999.0,'11111222,11111222,99999999' 
TABS,ioos:station:wmo:42051:1,2012-02-02T20:00:00Z,29.6350,-93.6417,2.0,276.3668878,38.5074772,-99999.0,'11111222,11111222,99999999' 
TABS,ioos:station:wmo:42051:1,2012-02-02T20:30:00Z,29.6350,-93.6417,2.0,276.9751613,34.99900141,-99999.0,'11111222,11111222,99999999' 
TABS,ioos:station:wmo:42051:1,2012-02-02T21:00:00Z,29.6350,-93.6417,2.0,275.3134375,34.99033009,-99999.0,'11111222,11111222,99999999' 
TABS,ioos:station:wmo:42051:1,2012-02-02T21:30:00Z,29.6350,-93.6417,2.0,272.1097426,34.23319588,-99999.0,'11111222,11111222,99999999' 
TABS,ioos:station:wmo:42051:1,2012-02-02T22:00:00Z,29.6350,-93.6417,2.0,275.4732245,32.60864456,-99999.0,'11111222,11111222,99999999' 
TABS,ioos:station:wmo:42051:1,2012-02-02T22:30:00Z,29.6350,-93.6417,2.0,275.3508712,29.9203643,-99999.0,'11111222,11111222,99999999' 
TABS,ioos:station:wmo:42051:1,2012-02-02T23:00:00Z,29.6350,-93.6417,2.0,272.5922066,31.40212254,-99999.0,'11111222,11111222,99999999' 
TABS,ioos:station:wmo:42051:1,2012-02-02T23:30:00Z,29.6350,-93.6417,2.0,277.0461736,26.90315967,-99999.0,'11111222,11111222,99999999' 
TABS,ioos:station:wmo:42051:1,2012-02-03T00:00:00Z,29.6350,-93.6417,2.0,272.1842677,24.66791641,-99999.0,'11111222,11111222,99999999' 
TABS,ioos:station:wmo:42051:1,2012-02-03T00:30:00Z,29.6350,-93.6417,2.0,262.9498591,27.37697025,-99999.0,'11111222,11111222,99999999' 
TABS,ioos:station:wmo:42051:1,2012-02-03T01:00:00Z,29.6350,-93.6417,2.0,267.5021926,38.09618354,-99999.0,'11111222,11111222,99999999' 
TABS,ioos:station:wmo:42051:1,2012-02-03T01:30:00Z,29.6350,-93.6417,2.0,259.7762675,39.60885381,-99999.0,'11111222,11111222,99999999' 
TABS,ioos:station:wmo:42051:1,2012-02-03T02:00:00Z,29.6350,-93.6417,2.0,251.2634859,39.10210352,-99999.0,'11111222,11111222,99999999' 
TABS,ioos:station:wmo:42051:1,2012-02-03T02:30:00Z,29.6350,-93.6417,2.0,251.3834108,43.98117779,-99999.0,'11111222,11111222,99999999' 
TABS,ioos:station:wmo:42051:1,2012-02-03T03:00:00Z,29.6350,-93.6417,2.0,255.6926774,44.14925254,-99999.0,'11111222,11111222,99999999' 
TABS,ioos:station:wmo:42051:1,2012-02-03T03:30:00Z,29.6350,-93.6417,2.0,250.0602532,45.8909806,-99999.0,'11111222,11111222,99999999' 
TABS,ioos:station:wmo:42051:1,2012-02-03T04:00:00Z,29.6350,-93.6417,2.0,247.9723519,46.63403264,-99999.0,'11111222,11111222,99999999' 
TABS,ioos:station:wmo:42051:1,2012-02-03T04:30:00Z,29.6350,-93.6417,2.0,245.9879068,46.07744134,-99999.0,'11111222,11111222,99999999' 
TABS,ioos:station:wmo:42051:1,2012-02-03T05:00:00Z,29.6350,-93.6417,2.0,248.2102833,44.10078684,-99999.0,'11111222,11111222,99999999' 
TABS,ioos:station:wmo:42051:1,2012-02-03T05:30:00Z,29.6350,-93.6417,2.0,244.2310693,46.97091015,-99999.0,'11111222,11111222,99999999' 
TABS,ioos:station:wmo:42051:1,2012-02-03T06:00:00Z,29.6350,-93.6417,2.0,246.0179672,42.46584039,-99999.0,'11111222,11111222,99999999' 
TABS,ioos:station:wmo:42051:1,2012-02-03T06:30:00Z,29.6350,-93.6417,2.0,256.1142538,54.33786985,-99999.0,'11111222,11111222,99999999' 
TABS,ioos:station:wmo:42051:1,2012-02-03T07:00:00Z,29.6350,-93.6417,2.0,251.9429204,56.52378261,-99999.0,'11111222,11111222,99999999' 
TABS,ioos:station:wmo:42051:1,2012-02-03T07:30:00Z,29.6350,-93.6417,2.0,248.2763462,50.38847686,-99999.0,'11111222,11111222,99999999' 
TABS,ioos:station:wmo:42051:1,2012-02-03T08:00:00Z,29.6350,-93.6417,2.0,246.7708462,47.33728868,-99999.0,'11111222,11111222,99999999' 
TABS,ioos:station:wmo:42051:1,2012-02-03T08:30:00Z,29.6350,-93.6417,2.0,246.0045055,40.99257738,-99999.0,'11111222,11111222,99999999' 
TABS,ioos:station:wmo:42051:1,2012-02-03T09:00:00Z,29.6350,-93.6417,2.0,250.988971,39.97004503,-99999.0,'11111222,11111222,99999999' 
TABS,ioos:station:wmo:42051:1,2012-02-03T09:30:00Z,29.6350,-93.6417,2.0,247.4544558,33.04541269,-99999.0,'11111222,11111222,99999999' 
TABS,ioos:station:wmo:42051:1,2012-02-03T10:00:00Z,29.6350,-93.6417,2.0,250.2637257,32.87086248,-99999.0,'11111222,11111222,99999999' 
TABS,ioos:station:wmo:42051:1,2012-02-03T10:30:00Z,29.6350,-93.6417,2.0,254.8515394,40.3728052,-99999.0,'11111222,11111222,99999999' 
TABS,ioos:station:wmo:42051:1,2012-02-03T11:00:00Z,29.6350,-93.6417,2.0,251.6189306,33.39366706,-99999.0,'11111222,11111222,99999999' 
TABS,ioos:station:wmo:42051:1,2012-02-03T11:30:00Z,29.6350,-93.6417,2.0,256.1523912,58.07789683,-99999.0,'11111222,11111222,99999999' 
TABS,ioos:station:wmo:42051:1,2012-02-03T12:00:00Z,29.6350,-93.6417,2.0,253.9856577,61.98537247,-99999.0,'11111222,11111222,99999999' 
TABS,ioos:station:wmo:42051:1,2012-02-03T12:30:00Z,29.6350,-93.6417,2.0,251.9138744,62.78186442,-99999.0,'11111222,11111222,99999999' 
TABS,ioos:station:wmo:42051:1,2012-02-03T13:00:00Z,29.6350,-93.6417,2.0,246.3091201,61.17529567,-99999.0,'11111222,11111222,99999999' 
TABS,ioos:station:wmo:42051:1,2012-02-03T13:30:00Z,29.6350,-93.6417,2.0,243.3321921,65.06073778,-99999.0,'11111222,11111222,99999999' 
TABS,ioos:station:wmo:42051:1,2012-02-03T14:00:00Z,29.6350,-93.6417,2.0,241.9790809,53.87531624,-99999.0,'11111222,11111222,99999999' 
TABS,ioos:station:wmo:42051:1,2012-02-03T14:30:00Z,29.6350,-93.6417,2.0,250.1907208,49.45643032,-99999.0,'11111222,11111222,99999999' 
TABS,ioos:station:wmo:42051:1,2012-02-03T15:00:00Z,29.6350,-93.6417,2.0,246.663118,58.36456545,-99999.0,'11111222,11111222,99999999' 
TABS,ioos:station:wmo:42051:1,2012-02-03T15:30:00Z,29.6350,-93.6417,2.0,246.8172742,60.25521139,-99999.0,'11111222,11111222,99999999' 
TABS,ioos:station:wmo:42051:1,2012-02-03T16:00:00Z,29.6350,-93.6417,2.0,246.9695808,60.70847881,-99999.0,'11111222,11111222,99999999' 
TABS,ioos:station:wmo:42051:1,2012-02-03T16:30:00Z,29.6350,-93.6417,2.0,247.4636052,56.7754454,-99999.0,'11111222,11111222,99999999' 
TABS,ioos:station:wmo:42051:1,2012-02-03T17:00:00Z,29.6350,-93.6417,2.0,243.1261834,59.82015714,-99999.0,'11111222,11111222,99999999' 
TABS,ioos:station:wmo:42051:1,2012-02-03T17:30:00Z,29.6350,-93.6417,2.0,242.0086219,57.50711695,-99999.0,'11111222,11111222,99999999' 
TABS,ioos:station:wmo:42051:1,2012-02-03T18:00:00Z,29.6350,-93.6417,2.0,245.3495219,53.13181439,-99999.0,'11111222,11111222,99999999' 
TABS,ioos:station:wmo:42051:1,2012-02-03T18:30:00Z,29.6350,-93.6417,2.0,247.3896971,48.82230843,-99999.0,'11111222,11111222,99999999' 
TABS,ioos:station:wmo:42051:1,2012-02-03T19:00:00Z,29.6350,-93.6417,2.0,258.9968549,39.50620204,-99999.0,'11111222,11111222,99999999' 
TABS,ioos:station:wmo:42051:1,2012-02-03T19:30:00Z,29.6350,-93.6417,2.0,265.1121117,40.72808982,-99999.0,'11111222,11111222,99999999' 
TABS,ioos:station:wmo:42051:1,2012-02-03T20:00:00Z,29.6350,-93.6417,2.0,256.8046591,38.15739247,-99999.0,'11111222,11111222,99999999' 
TABS,ioos:station:wmo:42051:1,2012-02-03T20:30:00Z,29.6350,-93.6417,2.0,265.3139299,39.05051216,-99999.0,'11111222,11111222,99999999' 
TABS,ioos:station:wmo:42051:1,2012-02-03T21:00:00Z,29.6350,-93.6417,2.0,259.3672509,38.80625207,-99999.0,'11111222,11111222,99999999' 
TABS,ioos:station:wmo:42051:1,2012-02-03T21:30:00Z,29.6350,-93.6417,2.0,250.3488674,37.70600085,-99999.0,'11111222,11111222,99999999' 
TABS,ioos:station:wmo:42051:1,2012-02-03T22:00:00Z,29.6350,-93.6417,2.0,248.2045411,33.66656502,-99999.0,'11111222,11111222,99999999' 
TABS,ioos:station:wmo:42051:1,2012-02-03T22:30:00Z,29.6350,-93.6417,2.0,260.5873097,35.77158929,-99999.0,'11111222,11111222,99999999' 
TABS,ioos:station:wmo:42051:1,2012-02-03T23:00:00Z,29.6350,-93.6417,2.0,245.9890002,28.99931206,-99999.0,'11111222,11111222,99999999' 
TABS,ioos:station:wmo:42051:1,2012-02-03T23:30:00Z,29.6350,-93.6417,2.0,247.9968241,27.99931606,-99999.0,'11111222,11111222,99999999' 
TABS,ioos:station:wmo:42051:1,2012-02-04T00:00:00Z,29.6350,-93.6417,2.0,235.9917259,25.99642475,-99999.0,'11111222,11111222,99999999' 
TABS,ioos:station:wmo:42051:1,2012-02-04T00:30:00Z,29.6350,-93.6417,2.0,248.4522322,30.57689487,-99999.0,'11111222,11111222,99999999' 
TABS,ioos:station:wmo:42051:1,2012-02-04T01:00:00Z,29.6350,-93.6417,2.0,247.1944335,27.34783538,-99999.0,'11111222,11111222,99999999' 
TABS,ioos:station:wmo:42051:1,2012-02-04T01:30:00Z,29.6350,-93.6417,2.0,241.8311731,23.1747384,-99999.0,'11111222,11111222,99999999' 
TABS,ioos:station:wmo:42051:1,2012-02-04T02:00:00Z,29.6350,-93.6417,2.0,251.269253,22.07931611,-99999.0,'11111222,11111222,99999999' 
TABS,ioos:station:wmo:42051:1,2012-02-04T02:30:00Z,29.6350,-93.6417,2.0,262.3310885,25.6292099,-99999.0,'11111222,11111222,99999999' 
TABS,ioos:station:wmo:42051:1,2012-02-04T03:00:00Z,29.6350,-93.6417,2.0,261.9249441,27.76526787,-99999.0,'11111222,11111222,99999999' 
TABS,ioos:station:wmo:42051:1,2012-02-04T03:30:00Z,29.6350,-93.6417,2.0,258.7687742,25.56964607,-99999.0,'11111222,11111222,99999999' 
TABS,ioos:station:wmo:42051:1,2012-02-04T04:00:00Z,29.6350,-93.6417,2.0,255.775127,31.74323392,-99999.0,'11111222,11111222,99999999' 
TABS,ioos:station:wmo:42051:1,2012-02-04T04:30:00Z,29.6350,-93.6417,2.0,248.1666778,30.35747849,-99999.0,'11111222,11111222,99999999' 
TABS,ioos:station:wmo:42051:1,2012-02-04T05:00:00Z,29.6350,-93.6417,2.0,249.083041,25.85373087,-99999.0,'11111222,11111222,99999999' 
TABS,ioos:station:wmo:42051:1,2012-02-04T05:30:00Z,29.6350,-93.6417,2.0,270.1371033,67.07019085,-99999.0,'11111222,11111222,99999999' 
TABS,ioos:station:wmo:42051:1,2012-02-04T06:00:00Z,29.6350,-93.6417,2.0,265.2285512,64.32287696,-99999.0,'11111222,11111222,99999999' 
TABS,ioos:station:wmo:42051:1,2012-02-04T06:30:00Z,29.6350,-93.6417,2.0,264.1507565,65.15920503,-99999.0,'11111222,11111222,99999999' 
TABS,ioos:station:wmo:42051:1,2012-02-04T07:00:00Z,29.6350,-93.6417,2.0,258.1436344,55.97408686,-99999.0,'11111222,11111222,99999999' 
TABS,ioos:station:wmo:42051:1,2012-02-04T07:30:00Z,29.6350,-93.6417,2.0,255.5739806,68.5203218,-99999.0,'11111222,11111222,99999999' 
TABS,ioos:station:wmo:42051:1,2012-02-04T08:00:00Z,29.6350,-93.6417,2.0,254.8197507,67.44318868,-99999.0,'11111222,11111222,99999999' 
TABS,ioos:station:wmo:42051:1,2012-02-04T08:30:00Z,29.6350,-93.6417,2.0,247.617658,67.80827678,-99999.0,'11111222,11111222,99999999' 
TABS,ioos:station:wmo:42051:1,2012-02-04T09:00:00Z,29.6350,-93.6417,2.0,247.2370905,70.7394501,-99999.0,'11111222,11111222,99999999' 
TABS,ioos:station:wmo:42051:1,2012-02-04T09:30:00Z,29.6350,-93.6417,2.0,243.1347512,69.22066816,-99999.0,'11111222,11111222,99999999' 
TABS,ioos:station:wmo:42051:1,2012-02-04T10:00:00Z,29.6350,-93.6417,2.0,243.9115257,66.08257032,-99999.0,'11111222,11111222,99999999' 
TABS,ioos:station:wmo:42051:1,2012-02-04T10:30:00Z,29.6350,-93.6417,2.0,243.3218035,59.06808614,-99999.0,'11111222,11111222,99999999' 
TABS,ioos:station:wmo:42051:1,2012-02-04T11:00:00Z,29.6350,-93.6417,2.0,240.7325066,57.86669595,-99999.0,'11111222,11111222,99999999' 
TABS,ioos:station:wmo:42051:1,2012-02-04T11:30:00Z,29.6350,-93.6417,2.0,240.2906684,57.40576713,-99999.0,'11111222,11111222,99999999' 
TABS,ioos:station:wmo:42051:1,2012-02-04T12:00:00Z,29.6350,-93.6417,2.0,232.3034767,52.8394947,-99999.0,'11111222,11111222,99999999' 
TABS,ioos:station:wmo:42051:1,2012-02-04T12:30:00Z,29.6350,-93.6417,2.0,229.7822056,49.86909263,-99999.0,'11111222,11111222,99999999' 
TABS,ioos:station:wmo:42051:1,2012-02-04T13:00:00Z,29.6350,-93.6417,2.0,228.8818915,48.25054818,-99999.0,'11111222,11111222,99999999' 
TABS,ioos:station:wmo:42051:1,2012-02-04T13:30:00Z,29.6350,-93.6417,2.0,230.5628183,42.37852404,-99999.0,'11111222,11111222,99999999' 
TABS,ioos:station:wmo:42051:1,2012-02-04T14:00:00Z,29.6350,-93.6417,2.0,232.3926255,40.8853837,-99999.0,'11111222,11111222,99999999' 
TABS,ioos:station:wmo:42051:1,2012-02-04T14:30:00Z,29.6350,-93.6417,2.0,230.3881269,35.54068092,-99999.0,'11111222,11111222,99999999' 
TABS,ioos:station:wmo:42051:1,2012-02-04T15:00:00Z,29.6350,-93.6417,2.0,228.3674374,36.5923298,-99999.0,'11111222,11111222,99999999' 
TABS,ioos:station:wmo:42051:1,2012-02-04T15:30:00Z,29.6350,-93.6417,2.0,232.0873992,36.39002198,-99999.0,'11111222,11111222,99999999' 
TABS,ioos:station:wmo:42051:1,2012-02-04T16:00:00Z,29.6350,-93.6417,2.0,233.1792763,32.4040121,-99999.0,'11111222,11111222,99999999' 